Location: Newark
(45.6000°N, 12.8833°E)
Time: 02:41:37
(UTC+00:00)

Envisat - Pass Details

Date: 24 October 2019
Orbit: 764 x 766 km, 98.1° (Epoch: 20 November)

Event Time Altitude Azimuth Distance (km) Brightness Sun altitude
Rises 18:20:54 0° 205° (SSW) 3,221 6.5 -23.8°
Reaches altitude 10° 18:23:48 10° 222° (SW) 2,300 5.9 -24.3°
Maximum altitude 18:27:28 20° 269° (W) 1,722 5.6 -25.0°
Drops below altitude 10° 18:31:09 10° 316° (NW) 2,312 6.2 -25.6°
Sets 18:34:05 0° 333° (NNW) 3,244 6.7 -26.1°
